Home   Weather   Eau Claire   Past weeks
Flag for USA

Past Weather in Eau Claire, Wisconsin, USA — Yesterday and Last 2 Weeks

Now
74 °F

Passing clouds.


Feels Like: 74 °F
Forecast: 80 / 66 °F
Wind: 6 mph from South

Location: Eau Claire County Airport

Current Time: Sep 19, 2019 at 8:29:27 pm

Latest Report: Sep 19, 2019 at 7:56 pm


Visibility: 10 mi

Pressure: 30.01 "Hg

Humidity: 79%

Dew Point: 67 °F

Location of Eau ClaireLocation

Past Weather in Eau Claire — Graph

°F

Eau Claire Temperature Yesterday

Maximum temperature yesterday: 80 °F (at 3:56 pm)
Minimum temperature yesterday: 68 °F (at 1:56 am)
Average temperature yesterday: 72 °F

High & Low Weather Summary for the Past Weeks

 TemperatureHumidityPressure
High85 °F (Sep 17, 3:56 pm)100% (Sep 11, 12:56 am)30.18 "Hg (Sep 11, 12:56 am)
Low47 °F (Sep 5, 3:56 am)41% (Sep 16, 3:56 pm)29.80 "Hg (Sep 13, 3:56 am)
Average64 °F82%30.02 "Hg
* Reported Sep 4 6:56 pm — Sep 19 6:56 pm, Eau Claire. Weather by CustomWeather, © 2019

Note: Actual official high and low records may vary slightly from our data, if they occured in-between our weather recording intervals... More about our weather records

Advertising

Eau Claire Weather History for the Previous 24 Hours

Scroll right to see more
 ConditionsComfort  
Time TempWeatherWind HumidityBarometerVisibility
6:56 pm
Thu, Sep 19
76 °FSunny.7 mph77%29.98 "Hg10 mi
5:56 pm79 °FSunny.6 mph65%29.97 "Hg10 mi
4:56 pm79 °FSunny.8 mph65%29.97 "Hg10 mi
3:56 pm81 °FSunny.3 mph56%29.96 "Hg10 mi
2:56 pm81 °FPartly sunny.5 mph56%29.97 "Hg10 mi
1:56 pm79 °FSunny.6 mph62%29.98 "Hg10 mi
12:56 pm76 °FSunny.7 mph69%30.00 "Hg10 mi
11:56 am75 °FScattered clouds.9 mph74%30.02 "Hg10 mi
10:56 am70 °FPartly sunny.6 mph87%30.02 "Hg10 mi
9:56 am69 °FLow clouds.6 mph90%30.02 "Hg10 mi
9:20 am69 °FLow clouds.6 mph90%30.02 "Hg10 mi
8:22 am67 °FFog.No wind93%29.99 "Hg4 mi
8:07 am66 °FFog.No wind96%29.99 "Hg2 mi
7:56 am66 °FFog.No wind96%29.98 "Hg3 mi
6:56 am68 °FPartly sunny.7 mph96%29.99 "Hg9 mi
5:56 am64 °FFog.3 mph97%29.96 "Hg4 mi
5:36 am63 °FFog.No wind97%29.96 "Hg2 mi
5:03 am62 °FFog.3 mph96%29.94 "Hg1 mi
4:56 am62 °FFog.No wind96%29.92 "Hg0 mi
4:29 am62 °FFog.No wind96%29.94 "Hg0 mi
4:14 am63 °FFog.No wind100%29.94 "Hg1 mi
3:56 am64 °FFog.No wind97%29.93 "Hg0 mi
3:26 am64 °FFog.No wind97%29.95 "Hg0 mi
3:19 am64 °FFog.No wind97%29.94 "Hg1 mi
2:56 am65 °FFog.No wind97%29.93 "Hg1 mi
2:42 am66 °FFog.No wind96%29.95 "Hg1 mi
2:35 am66 °FFog.No wind96%29.95 "Hg1 mi
2:08 am67 °FFog.No wind97%29.95 "Hg1 mi
1:56 am68 °FFog.No wind96%29.94 "Hg4 mi
1:36 am67 °FFog.No wind97%29.96 "Hg2 mi
12:56 am69 °FFog.No wind93%29.94 "Hg6 mi
11:56 pm
Wed, Sep 18
71 °FMostly cloudy.3 mph90%29.95 "Hg9 mi
10:56 pm72 °FMostly cloudy.9 mph84%29.94 "Hg10 mi
9:56 pm74 °FMostly cloudy.7 mph74%29.93 "Hg10 mi
8:56 pm74 °FPassing clouds.7 mph74%29.93 "Hg10 mi
Weather by CustomWeather, © 2019

See weather overview